Knox, IN

9:13 PM CDT on October 19, 2017 (GMT -0500)
Starke County

Weather History for KOXI - January, 2013

Change the Weather History Date:

Thursday, January 31, 2013

  Actual Average (KRCR) Record (KRCR)
Temperature  
Mean Temperature 16 °F -  
Max Temperature 24 °F 31 °F 55 °F (2016)
Min Temperature 8 °F 16 °F 21 °F (2015)
Degree Days  
Heating Degree Days 49    
Moisture  
Dew Point 10 °F    
Average Humidity 74    
Maximum Humidity 85    
Minimum Humidity 63    
Precipitation  
Precipitation 0.00 in - - ()
Sea Level Pressure  
Sea Level Pressure 29.84 in    
Wind  
Wind Speed 21 mph (West)    
Max Wind Speed 26 mph    
Max Gust Speed 34 mph    
Visibility 9 miles    
Events      
Averages and records for this station are not official NWS values.
T = Trace of Precipitation, MM = Missing Value Source: NWS Daily Summary

Daily Weather History Graph

Daily Weather History Graph

Search for Another Location

Airport or City:

Trip Planner

Search our weather history database for the weather conditions in past years. The results will help you decide how hot, cold, wet, or windy it might be!

Date:

Astronomy

Jan. 31, 2013 Rise Set
Actual Time 6:58 AM CST 5:02 PM CST
Civil Twilight 6:29 AM CST 5:31 PM CST
Nautical Twilight 5:56 AM CST 6:04 PM CST
Astronomical Twilight 5:23 AM CST 6:37 PM CST
Moon 10:07 PM CST (1/31) 8:54 AM CST (1/31)
Length of Visible Light 11h 02m
Length of Day
10h 03m
Waning Gibbous, 79% of the Moon is Illuminated
Jan 31
Waning Gibbous
Feb 3
Last Quarter
Feb 10
New
Feb 17
First Quarter
Feb 25
Full

Hourly Weather History & Observations

Time (CST) Temp. Windchill Dew Point Humidity Pressure Visibility Wind Dir Wind Speed Gust Speed Precip Events Conditions
12:15 AM 24.8 °F 10.7 °F 19.9 °F 82% 29.58 in 10.0 mi West 19.6 mph 28.8 mph N/A   Overcast
12:35 AM 24.3 °F 8.9 °F 19.2 °F 81% 29.59 in 10.0 mi West 23.0 mph 33.4 mph N/A   Overcast
12:55 AM 23.7 °F 7.9 °F 18.7 °F 81% 29.60 in 10.0 mi West 24.2 mph 31.1 mph N/A   Overcast
1:15 AM 23.4 °F 7.4 °F 18.7 °F 82% 29.62 in 10.0 mi West 24.2 mph 31.1 mph N/A   Overcast
1:35 AM 23.0 °F 7.2 °F 17.1 °F 78% 29.63 in 10.0 mi West 23.0 mph 31.1 mph N/A   Overcast
1:55 AM 22.8 °F 7.7 °F 16.7 °F 77% 29.64 in 7.0 mi West 20.7 mph 28.8 mph N/A   Overcast
2:15 AM 22.1 °F 7.2 °F 18.1 °F 85% 29.65 in 5.0 mi West 19.6 mph 26.5 mph N/A   Overcast
2:35 AM 22.3 °F 6.6 °F 18.3 °F 85% 29.65 in 7.0 mi West 21.9 mph 28.8 mph N/A   Overcast
2:55 AM 21.9 °F 5.8 °F 17.6 °F 83% 29.66 in 7.0 mi West 23.0 mph 29.9 mph N/A   Overcast
3:15 AM 21.2 °F 4.9 °F 16.5 °F 82% 29.67 in 10.0 mi West 23.0 mph 31.1 mph N/A   Overcast
3:35 AM 20.7 °F 4.9 °F 15.8 °F 81% 29.68 in 7.0 mi West 20.7 mph 27.6 mph N/A   Overcast
3:55 AM 20.1 °F 4.6 °F 15.8 °F 83% 29.68 in 7.0 mi West 19.6 mph 29.9 mph N/A   Overcast
4:15 AM 19.8 °F 3.7 °F 14.5 °F 80% 29.69 in 10.0 mi West 20.7 mph 29.9 mph N/A   Overcast
4:35 AM 19.6 °F 2.7 °F 13.1 °F 76% 29.70 in 10.0 mi West 23.0 mph 32.2 mph N/A   Overcast
4:55 AM 19.6 °F 3.1 °F 12.4 °F 74% 29.71 in 10.0 mi West 21.9 mph 27.6 mph N/A   Overcast
5:15 AM 19.2 °F 1.9 °F 10.8 °F 70% 29.70 in 10.0 mi West 24.2 mph 34.5 mph N/A   Overcast
5:35 AM 19.4 °F 3.2 °F 10.0 °F 67% 29.71 in 10.0 mi West 20.7 mph 28.8 mph N/A   Overcast
5:55 AM 18.9 °F 3.3 °F 13.3 °F 79% 29.72 in 5.0 mi West 18.4 mph 26.5 mph N/A   Overcast
6:15 AM 18.3 °F 0.3 °F 13.3 °F 81% 29.73 in 10.0 mi West 25.3 mph 31.1 mph N/A   Overcast
6:55 AM 18.1 °F 2.4 °F 12.0 °F 77% 29.75 in 10.0 mi West 18.4 mph 26.5 mph N/A   Overcast
7:15 AM 18.3 °F 3.1 °F 11.7 °F 75% 29.75 in 10.0 mi West 17.3 mph 26.5 mph N/A   Overcast
7:35 AM 18.7 °F 2.7 °F 12.7 °F 78% 29.76 in 7.0 mi West 19.6 mph 26.5 mph N/A   Overcast
7:55 AM 19.2 °F 3.0 °F 12.4 °F 75% 29.77 in 10.0 mi West 20.7 mph 25.3 mph N/A   Overcast
8:15 AM 19.4 °F 5.0 °F 13.5 °F 78% 29.78 in 10.0 mi West 16.1 mph 24.2 mph N/A   Overcast
8:35 AM 19.9 °F 3.5 °F 13.6 °F 77% 29.79 in 10.0 mi West 21.9 mph 31.1 mph N/A   Overcast
8:55 AM 19.9 °F 3.2 °F 12.4 °F 72% 29.79 in 10.0 mi West 23.0 mph 33.4 mph N/A   Overcast
9:15 AM 19.9 °F 2.8 °F 12.0 °F 71% 29.80 in 10.0 mi West 24.2 mph 34.5 mph N/A   Overcast
9:35 AM 20.1 °F 4.6 °F 11.5 °F 69% 29.81 in 10.0 mi West 19.6 mph 28.8 mph N/A   Mostly Cloudy
9:55 AM 19.8 °F 5.0 °F 12.4 °F 73% 29.82 in 10.0 mi West 17.3 mph 25.3 mph N/A   Mostly Cloudy
10:15 AM 20.1 °F 6.4 °F 13.3 °F 75% 29.82 in 10.0 mi West 15.0 mph 25.3 mph N/A   Overcast
10:35 AM 20.7 °F 5.7 °F 14.4 °F 77% 29.82 in 10.0 mi West 18.4 mph - N/A   Overcast
10:55 AM 21.0 °F 4.6 °F 13.8 °F 74% 29.83 in 10.0 mi West 23.0 mph 28.8 mph N/A   Mostly Cloudy
11:15 AM 20.1 °F 3.8 °F 12.6 °F 73% 29.84 in 10.0 mi West 21.9 mph 27.6 mph N/A   Scattered Clouds
11:35 AM 19.4 °F 3.6 °F 11.1 °F 70% 29.84 in 10.0 mi West 19.6 mph 27.6 mph N/A   Scattered Clouds
11:55 AM 19.2 °F 2.6 °F 10.6 °F 69% 29.84 in 10.0 mi West 21.9 mph 27.6 mph N/A   Scattered Clouds
12:15 PM 19.8 °F 3.3 °F 10.8 °F 68% 29.85 in 10.0 mi West 21.9 mph 27.6 mph N/A   Mostly Cloudy
12:35 PM 19.0 °F 2.0 °F 9.9 °F 67% 29.85 in 10.0 mi West 23.0 mph 29.9 mph N/A   Mostly Cloudy
12:55 PM 18.9 °F 2.5 °F 10.2 °F 69% 29.85 in 10.0 mi West 20.7 mph 26.5 mph N/A   Overcast
1:15 PM 18.7 °F 3.1 °F 9.5 °F 67% 29.86 in 10.0 mi West 18.4 mph 33.4 mph N/A   Overcast
1:35 PM 18.5 °F 1.3 °F 10.0 °F 70% 29.87 in 7.0 mi West 23.0 mph 27.6 mph N/A   Overcast
1:55 PM 18.5 °F 1.6 °F 9.5 °F 68% 29.87 in 10.0 mi West 21.9 mph 29.9 mph N/A   Mostly Cloudy
2:15 PM 18.7 °F 0.5 °F 9.1 °F 66% 29.87 in 7.0 mi West 26.5 mph 31.1 mph N/A   Overcast
2:35 PM 18.5 °F 2.4 °F 10.8 °F 72% 29.87 in 5.0 mi West 19.6 mph 28.8 mph N/A   Mostly Cloudy
2:55 PM 18.1 °F 3.4 °F 10.8 °F 73% 29.87 in 10.0 mi West 16.1 mph 26.5 mph N/A   Overcast
3:15 PM 18.1 °F 2.9 °F 8.2 °F 65% 29.88 in 7.0 mi West 17.3 mph 28.8 mph N/A   Overcast
3:35 PM 17.6 °F 0.1 °F 7.9 °F 66% 29.88 in 10.0 mi WNW 23.0 mph 31.1 mph N/A   Overcast
3:55 PM 17.4 °F 1.0 °F 8.1 °F 67% 29.89 in 10.0 mi West 19.6 mph 28.8 mph N/A   Overcast
4:15 PM 16.9 °F 2.8 °F 8.4 °F 69% 29.90 in 7.0 mi West 13.8 mph 23.0 mph N/A   Overcast
4:35 PM 16.3 °F 1.0 °F 8.6 °F 72% 29.90 in 7.0 mi West 16.1 mph 24.2 mph N/A   Mostly Cloudy
4:55 PM 16.0 °F -0.4 °F 8.1 °F 71% 29.91 in 10.0 mi West 18.4 mph 24.2 mph N/A   Mostly Cloudy
5:15 PM 15.8 °F -0.6 °F 7.2 °F 69% 29.92 in 10.0 mi West 18.4 mph 27.6 mph N/A   Overcast
5:35 PM 15.3 °F -1.3 °F 7.5 °F 71% 29.93 in 10.0 mi West 18.4 mph 24.2 mph N/A   Overcast
5:55 PM 14.9 °F -2.7 °F 6.3 °F 69% 29.94 in 10.0 mi West 20.7 mph 27.6 mph N/A   Overcast
6:15 PM 14.5 °F -2.3 °F 5.9 °F 69% 29.95 in 10.0 mi West 18.4 mph 25.3 mph N/A   Overcast
6:35 PM 14.4 °F -0.4 °F 7.3 °F 74% 29.96 in 7.0 mi West 13.8 mph - N/A   Overcast
6:55 PM 14.2 °F 0.0 °F 7.9 °F 76% 29.97 in 5.0 mi WNW 12.7 mph 21.9 mph N/A   Overcast
7:15 PM 14.0 °F -3.4 °F 7.5 °F 75% 29.98 in 7.0 mi WNW 19.6 mph 24.2 mph N/A   Overcast
7:35 PM 13.1 °F -5.1 °F 6.6 °F 75% 29.99 in 7.0 mi WNW 20.7 mph 26.5 mph N/A   Overcast
7:55 PM 12.6 °F -4.4 °F 5.9 °F 75% 30.00 in 10.0 mi West 17.3 mph 24.2 mph N/A   Overcast
8:15 PM 12.0 °F -6.0 °F 5.9 °F 76% 30.01 in 10.0 mi West 19.6 mph 25.3 mph N/A   Overcast
8:35 PM 11.5 °F -7.6 °F 2.5 °F 67% 30.02 in 10.0 mi West 21.9 mph 27.6 mph N/A   Overcast
8:55 PM 10.9 °F -6.5 °F 0.7 °F 63% 30.03 in 10.0 mi West 17.3 mph 26.5 mph N/A   Overcast
9:15 PM 10.4 °F -8.2 °F 0.7 °F 65% 30.03 in 10.0 mi West 19.6 mph 25.3 mph N/A   Overcast
9:35 PM 10.2 °F -6.9 °F 1.4 °F 68% 30.04 in 10.0 mi West 16.1 mph 26.5 mph N/A   Overcast
9:55 PM 9.9 °F -8.4 °F 2.3 °F 71% 30.05 in 10.0 mi West 18.4 mph 25.3 mph N/A   Overcast
10:15 PM 9.5 °F -8.3 °F 2.1 °F 72% 30.06 in 7.0 mi West 17.3 mph 27.6 mph N/A   Overcast
10:35 PM 9.3 °F -7.4 °F 2.7 °F 74% 30.07 in 7.0 mi West 15.0 mph 26.5 mph N/A   Overcast
10:55 PM 9.1 °F -8.8 °F 3.0 °F 76% 30.08 in 7.0 mi West 17.3 mph 24.2 mph N/A   Overcast
11:15 PM 8.8 °F -9.3 °F 1.6 °F 73% 30.08 in 10.0 mi West 17.3 mph 26.5 mph N/A   Overcast
11:35 PM 8.4 °F -10.3 °F 1.2 °F 73% 30.10 in 10.0 mi West 18.4 mph 24.2 mph N/A   Scattered Clouds
11:55 PM 8.2 °F -9.4 °F 1.0 °F 72% 30.10 in 10.0 mi West 16.1 mph 24.2 mph N/A   Scattered Clouds